Flag for Germany Weather past 2 weeks in Warstein, North Rhine-Westphalia, Germany

46 °F


Feels Like: 44 °F
Forecast: 33 / 47 °F
Wind: 5 mph from East

Location: Paderborn / Lippstadt

Current Time: Oct 10, 2015 at 7:58:18 AM

Latest Report: Oct 10, 2015 at 7:20 AM

Visibility: 2 mi

Pressure: 30.15 "Hg

Humidity: 100%

Dew point: 46 °F

Location of WarsteinLocation

Historic Weather in Warstein — Graph


Warstein temperature yesterday

Maximum temperature yesterday: 54 °F (at 12:50 PM)
Minimum temperature yesterday: 50 °F (at 12:20 AM)
Average temperature yesterday: 51 °F

Past Weeks' High & Low Weather Summary

High66 °F (Oct 6, 2:50 PM)100% (Sep 25, 6:20 AM)30.66 "Hg (Sep 25, 6:20 AM)
Low34 °F (Oct 2, 6:20 AM)39% (Oct 2, 5:20 PM)29.65 "Hg (Oct 6, 5:20 AM)
Average52 °F80%30.21 "Hg
* Reported Sep 25 6:20 AM — Oct 10 6:20 AM, Warstein, Weather by CustomWeather, © 2015

Note: Actual official high and low records may vary slightly from our data, if they occured in-between our weather recording intervals... More about our weather records


Warstein weather history for previous 24 hours

Time TempWeatherWind HumidityBarometerVisibility
6:20 AM
Sat, Oct 10
46 °FFog.6 mph100%30.15 "Hg1 mi
5:50 AM46 °FFog.7 mph100%30.15 "Hg1 mi
5:20 AM46 °FFog.7 mph100%30.15 "Hg1 mi
4:50 AM48 °FFog.6 mph94%30.15 "Hg1 mi
4:20 AM48 °FFog.3 mph100%30.15 "Hg3 mi
3:50 AM48 °FFog.5 mph100%30.15 "Hg2 mi
3:20 AM48 °FFog.5 mph100%30.15 "Hg3 mi
2:50 AM48 °FFog.5 mph100%30.15 "Hg3 mi
2:20 AM48 °FLow clouds.5 mph100%30.15 "Hg3 mi
1:50 AM50 °FPartly cloudy.6 mph94%30.15 "Hg4 mi
1:20 AM50 °FPartly cloudy.7 mph94%30.15 "Hg4 mi
12:50 AM50 °FPassing clouds.5 mph100%30.15 "Hg4 mi
12:20 AM50 °FPassing clouds.5 mph100%30.15 "Hg4 mi
11:50 PM
Fri, Oct 9
50 °FPartly cloudy.6 mph100%30.18 "HgN/A
10:50 PM50 °FLight rain. Partly cloudy.3 mph100%30.18 "HgN/A
10:20 PM50 °FLight rain. Passing clouds.3 mph100%30.18 "Hg6 mi
9:50 PM50 °FLight rain. Passing clouds.5 mph100%30.18 "Hg6 mi
9:20 PM52 °FLight rain. Passing clouds.5 mph94%30.18 "Hg4 mi
8:50 PM52 °FPartly cloudy.3 mph100%30.15 "Hg4 mi
8:20 PM52 °FPartly cloudy.5 mph100%30.15 "HgN/A
7:50 PM52 °FPassing clouds.5 mph100%30.15 "HgN/A
7:20 PM52 °FPartly sunny.5 mph100%30.15 "Hg6 mi
6:50 PM54 °FDrizzle. Broken clouds.5 mph94%30.15 "Hg4 mi
6:20 PM54 °FDrizzle. Fog.5 mph94%30.15 "Hg3 mi
5:50 PM54 °FDrizzle. Fog.5 mph100%30.15 "Hg3 mi
5:20 PM54 °FDrizzle. Fog.3 mph94%30.15 "Hg3 mi
4:20 PM54 °FFog.6 mph100%30.15 "Hg2 mi
3:50 PM54 °FFog.5 mph100%30.15 "Hg2 mi
3:20 PM54 °FFog.5 mph100%30.15 "Hg2 mi
2:50 PM54 °FFog.5 mph100%30.15 "Hg2 mi
2:20 PM54 °FFog.6 mph100%30.15 "Hg2 mi
1:50 PM54 °FDrizzle. Fog.5 mph100%30.15 "Hg1 mi
1:20 PM54 °FDrizzle. Fog.3 mph94%30.15 "Hg1 mi
12:50 PM54 °FDrizzle. Fog.2 mph94%30.15 "Hg1 mi
12:20 PM52 °FDrizzle. Fog.3 mph100%30.15 "Hg1 mi
11:50 AM52 °FDrizzle. Fog.3 mph94%30.15 "Hg0 mi
11:20 AM50 °FDrizzle. Fog.3 mph100%30.15 "Hg0 mi
10:50 AM50 °FDrizzle. Fog.3 mph100%30.15 "Hg1 mi
10:20 AM50 °FDrizzle. Fog.3 mph100%30.15 "Hg1 mi
9:50 AM50 °FLight rain. Fog.5 mph100%30.15 "Hg1 mi
9:20 AM50 °FLight rain. Fog.3 mph94%30.15 "Hg1 mi
8:50 AM50 °FLight rain. Fog.5 mph100%30.15 "Hg1 mi
8:20 AM50 °FLight rain. Fog.6 mph100%30.15 "Hg1 mi
7:50 AM50 °FLight rain. Fog.5 mph100%30.15 "Hg1 mi
7:20 AM50 °FLight rain. Fog.5 mph94%30.15 "Hg1 mi
Weather by CustomWeather, © 2015

See weather overviewHow to use our weather pages